Location: Wiesbaden
(50.0830°N, 8.2500°E)
Time: 17:38:33
(UTC+01:00)

ISS - Pass Details

Date: 24 January 2020
Orbit: 415 x 421 km, 51.6° (Epoch: 18 January)

Event Time Altitude Azimuth Distance (km) Brightness Sun altitude
Rises 18:22:34 0° 224° (SW) 2,357 1.2 -12.1°
Reaches altitude 10° 18:24:45 10° 215° (SW) 1,495 -0.2 -12.4°
Maximum altitude 18:27:50 34° 149° (SSE) 703 -2.8 -12.9°
Enters shadow 18:29:24 22° 99° (E) 971 -2.5 -13.1°
